contact:dominique.lefevre@mio.osupytheas.fr, maurice.libes@osupytheas.fr, didier.mallarino@osupytheas.fr
Project:EMSO http://www.emso-fr.org/EMSO-France
Depth: 2436.0 m
Title:EMSO Ligure Ouest : Data MII capteur MICROCAT
DateTime_Computer,Latitude,Longitude,Temperature,Conductivity,Pressure,DateTime_Instrument
DateTime_Computer,Latitude,Longitude,degC,S m-1,dbar,DateTime_Instrument
2017-11-08T00:00:05Z,42.805,6.029,13.2986,4.60010,2472.024,2017-11-08T02:01:32Z
2017-11-08T00:03:08Z,42.805,6.029,13.2978,4.60020,2472.024,2017-11-08T02:04:35Z
2017-11-08T00:06:11Z,42.805,6.029,13.2973,4.59993,2472.002,2017-11-08T02:07:38Z
2017-11-08T00:09:14Z,42.805,6.029,13.3004,4.60017,2471.987,2017-11-08T02:10:40Z
2017-11-08T00:12:17Z,42.805,6.029,13.2996,4.60015,2471.987,2017-11-08T02:13:43Z
2017-11-08T00:15:20Z,42.805,6.029,13.2999,4.60009,2471.987,2017-11-08T02:16:46Z
2017-11-08T00:18:22Z,42.805,6.029,13.3004,4.60005,2472.002,2017-11-08T02:19:49Z
2017-11-08T00:21:25Z,42.805,6.029,13.3000,4.60027,2471.979,2017-11-08T02:22:52Z
2017-11-08T00:24:28Z,42.805,6.029,13.2992,4.59992,2472.002,2017-11-08T02:25:55Z
2017-11-08T00:27:31Z,42.805,6.029,13.2988,4.59992,2471.957,2017-11-08T02:28:58Z
2017-11-08T00:30:34Z,42.805,6.029,13.3003,4.60012,2472.002,2017-11-08T02:32:01Z
2017-11-08T00:33:37Z,42.805,6.029,13.2981,4.60009,2472.002,2017-11-08T02:35:04Z
2017-11-08T00:36:40Z,42.805,6.029,13.2991,4.59995,2472.002,2017-11-08T02:38:06Z
2017-11-08T00:39:43Z,42.805,6.029,13.2973,4.60044,2472.01,2017-11-08T02:41:09Z
2017-11-08T00:42:46Z,42.805,6.029,13.2973,4.60022,2471.957,2017-11-08T02:44:12Z
2017-11-08T00:45:48Z,42.805,6.029,13.2964,4.60021,2471.979,2017-11-08T02:47:15Z
2017-11-08T00:48:51Z,42.805,6.029,13.2971,4.60018,2471.957,2017-11-08T02:50:18Z
2017-11-08T00:51:54Z,42.805,6.029,13.2975,4.60035,2471.964,2017-11-08T02:53:21Z
2017-11-08T00:54:57Z,42.805,6.029,13.2982,4.60027,2471.979,2017-11-08T02:56:24Z
2017-11-08T00:58:00Z,42.805,6.029,13.2985,4.60037,2471.964,2017-11-08T02:59:27Z
2017-11-08T01:01:03Z,42.805,6.029,13.2987,4.60022,2471.979,2017-11-08T03:02:30Z
2017-11-08T01:04:06Z,42.805,6.029,13.2996,4.60070,2471.979,2017-11-08T03:05:32Z
2017-11-08T01:07:09Z,42.805,6.029,13.2982,4.60045,2471.979,2017-11-08T03:08:35Z
2017-11-08T01:10:12Z,42.805,6.029,13.2983,4.60053,2471.964,2017-11-08T03:11:38Z
2017-11-08T01:13:14Z,42.805,6.029,13.2989,4.60024,2471.942,2017-11-08T03:14:41Z
2017-11-08T01:16:17Z,42.805,6.029,13.2989,4.60070,2471.979,2017-11-08T03:17:44Z
2017-11-08T01:19:20Z,42.805,6.029,13.2982,4.60032,2471.979,2017-11-08T03:20:47Z
2017-11-08T01:22:23Z,42.805,6.029,13.2985,4.60030,2471.957,2017-11-08T03:23:50Z
2017-11-08T01:25:26Z,42.805,6.029,13.2992,4.60007,2471.934,2017-11-08T03:26:53Z
2017-11-08T01:28:29Z,42.805,6.029,13.2991,4.60040,2471.957,2017-11-08T03:29:56Z
2017-11-08T01:31:32Z,42.805,6.029,13.2973,4.60051,2471.957,2017-11-08T03:32:58Z
2017-11-08T01:34:35Z,42.805,6.029,13.2979,4.60060,2471.957,2017-11-08T03:36:01Z
2017-11-08T01:37:38Z,42.805,6.029,13.2986,4.60022,2471.979,2017-11-08T03:39:04Z
2017-11-08T01:40:40Z,42.805,6.029,13.2976,4.60052,2471.979,2017-11-08T03:42:07Z
2017-11-08T01:43:43Z,42.805,6.029,13.2987,4.60026,2471.957,2017-11-08T03:45:10Z
2017-11-08T01:46:46Z,42.805,6.029,13.2954,4.60075,2471.957,2017-11-08T03:48:13Z
2017-11-08T01:49:49Z,42.805,6.029,13.2960,4.60030,2471.979,2017-11-08T03:51:16Z
2017-11-08T01:52:52Z,42.805,6.029,13.2967,4.60018,2471.994,2017-11-08T03:54:19Z
2017-11-08T01:55:55Z,42.805,6.029,13.2959,4.59987,2471.934,2017-11-08T03:57:22Z
2017-11-08T01:58:58Z,42.805,6.029,13.2962,4.59993,2471.957,2017-11-08T04:00:24Z
2017-11-08T02:02:01Z,42.805,6.029,13.2954,4.59992,2471.957,2017-11-08T04:03:27Z
2017-11-08T02:05:03Z,42.805,6.029,13.2954,4.60000,2471.912,2017-11-08T04:06:30Z
2017-11-08T02:08:06Z,42.805,6.029,13.2950,4.59995,2471.942,2017-11-08T04:09:33Z
2017-11-08T02:11:09Z,42.805,6.029,13.2953,4.60001,2471.934,2017-11-08T04:12:36Z
2017-11-08T02:14:12Z,42.805,6.029,13.2961,4.59988,2471.934,2017-11-08T04:15:39Z
2017-11-08T02:17:15Z,42.805,6.029,13.2955,4.59998,2471.957,2017-11-08T04:18:42Z
2017-11-08T02:20:18Z,42.805,6.029,13.2957,4.60012,2471.949,2017-11-08T04:21:45Z
2017-11-08T02:23:21Z,42.805,6.029,13.2968,4.60014,2471.934,2017-11-08T04:24:47Z
2017-11-08T02:26:24Z,42.805,6.029,13.2987,4.60018,2471.957,2017-11-08T04:27:50Z
2017-11-08T02:29:27Z,42.805,6.029,13.2960,4.60029,2471.934,2017-11-08T04:30:54Z
2017-11-08T02:32:30Z,42.805,6.029,13.2985,4.60043,2471.912,2017-11-08T04:33:57Z
2017-11-08T02:35:33Z,42.805,6.029,13.2973,4.60041,2471.934,2017-11-08T04:37:00Z
2017-11-08T02:38:36Z,42.805,6.029,13.2967,4.60047,2471.912,2017-11-08T04:40:03Z
2017-11-08T02:41:39Z,42.805,6.029,13.2957,4.60015,2471.912,2017-11-08T04:43:06Z
2017-11-08T02:44:42Z,42.805,6.029,13.2952,4.60008,2471.919,2017-11-08T04:46:08Z
2017-11-08T02:47:45Z,42.805,6.029,13.2962,4.60007,2471.934,2017-11-08T04:49:11Z
2017-11-08T02:50:48Z,42.805,6.029,13.2961,4.60002,2471.912,2017-11-08T04:52:14Z
2017-11-08T02:53:50Z,42.805,6.029,13.2958,4.59992,2471.934,2017-11-08T04:55:17Z
2017-11-08T02:56:53Z,42.805,6.029,13.2963,4.60015,2471.919,2017-11-08T04:58:20Z
2017-11-08T02:59:56Z,42.805,6.029,13.2960,4.60032,2471.897,2017-11-08T05:01:23Z
2017-11-08T03:02:59Z,42.805,6.029,13.2959,4.60012,2471.912,2017-11-08T05:04:26Z
2017-11-08T03:06:02Z,42.805,6.029,13.2971,4.60015,2471.912,2017-11-08T05:07:29Z
2017-11-08T03:09:05Z,42.805,6.029,13.2971,4.60057,2471.897,2017-11-08T05:10:32Z
2017-11-08T03:12:08Z,42.805,6.029,13.2969,4.60006,2471.912,2017-11-08T05:13:34Z
2017-11-08T03:15:11Z,42.805,6.029,13.2954,4.59998,2471.889,2017-11-08T05:16:37Z
2017-11-08T03:18:14Z,42.805,6.029,13.2952,4.60001,2471.919,2017-11-08T05:19:40Z
2017-11-08T03:21:16Z,42.805,6.029,13.2964,4.60007,2471.934,2017-11-08T05:22:43Z
2017-11-08T03:24:19Z,42.805,6.029,13.2958,4.60001,2471.897,2017-11-08T05:25:46Z
2017-11-08T03:27:22Z,42.805,6.029,13.2950,4.59998,2471.912,2017-11-08T05:28:49Z
2017-11-08T03:30:25Z,42.805,6.029,13.2956,4.59992,2471.866,2017-11-08T05:31:52Z
2017-11-08T03:33:28Z,42.805,6.029,13.2957,4.60002,2471.889,2017-11-08T05:34:55Z
2017-11-08T03:36:31Z,42.805,6.029,13.2953,4.60016,2471.912,2017-11-08T05:37:58Z
2017-11-08T03:39:34Z,42.805,6.029,13.2957,4.59992,2471.912,2017-11-08T05:41:00Z
2017-11-08T03:42:37Z,42.805,6.029,13.2964,4.60009,2471.889,2017-11-08T05:44:03Z
2017-11-08T03:45:39Z,42.805,6.029,13.2952,4.60006,2471.889,2017-11-08T05:47:06Z
2017-11-08T03:48:42Z,42.805,6.029,13.2955,4.59999,2471.912,2017-11-08T05:50:09Z
2017-11-08T03:51:45Z,42.805,6.029,13.2960,4.59992,2471.912,2017-11-08T05:53:12Z
2017-11-08T03:54:48Z,42.805,6.029,13.2958,4.60006,2471.889,2017-11-08T05:56:15Z
2017-11-08T03:57:51Z,42.805,6.029,13.2958,4.60006,2471.874,2017-11-08T05:59:18Z
2017-11-08T04:00:54Z,42.805,6.029,13.2948,4.59999,2471.897,2017-11-08T06:02:21Z
2017-11-08T04:03:57Z,42.805,6.029,13.2956,4.59992,2471.912,2017-11-08T06:05:24Z
2017-11-08T04:07:00Z,42.805,6.029,13.2948,4.59988,2471.912,2017-11-08T06:08:26Z
2017-11-08T04:10:03Z,42.805,6.029,13.2957,4.59990,2471.897,2017-11-08T06:11:29Z
2017-11-08T04:13:05Z,42.805,6.029,13.2951,4.59991,2471.874,2017-11-08T06:14:32Z
2017-11-08T04:16:08Z,42.805,6.029,13.2949,4.59983,2471.912,2017-11-08T06:17:35Z
2017-11-08T04:19:11Z,42.805,6.029,13.2955,4.59986,2471.889,2017-11-08T06:20:38Z
2017-11-08T04:22:14Z,42.805,6.029,13.2958,4.59989,2471.919,2017-11-08T06:23:41Z
2017-11-08T04:25:17Z,42.805,6.029,13.2954,4.60009,2471.912,2017-11-08T06:26:44Z
2017-11-08T04:28:20Z,42.805,6.029,13.2968,4.60025,2471.889,2017-11-08T06:29:47Z
2017-11-08T04:31:23Z,42.805,6.029,13.2975,4.60012,2471.897,2017-11-08T06:32:50Z
2017-11-08T04:34:26Z,42.805,6.029,13.2977,4.60021,2471.912,2017-11-08T06:35:52Z
2017-11-08T04:37:29Z,42.805,6.029,13.2957,4.60011,2471.874,2017-11-08T06:38:55Z
2017-11-08T04:40:31Z,42.805,6.029,13.2968,4.60012,2471.874,2017-11-08T06:41:58Z
2017-11-08T04:43:34Z,42.805,6.029,13.2958,4.59998,2471.874,2017-11-08T06:45:01Z
2017-11-08T04:46:37Z,42.805,6.029,13.2958,4.60004,2471.889,2017-11-08T06:48:04Z
2017-11-08T04:49:40Z,42.805,6.029,13.2949,4.59987,2471.912,2017-11-08T06:51:07Z
2017-11-08T04:52:43Z,42.805,6.029,13.2956,4.59982,2471.889,2017-11-08T06:54:10Z
2017-11-08T04:55:46Z,42.805,6.029,13.2955,4.59988,2471.889,2017-11-08T06:57:13Z
2017-11-08T04:58:49Z,42.805,6.029,13.2953,4.59996,2471.852,2017-11-08T07:00:15Z
2017-11-08T05:01:52Z,42.805,6.029,13.2957,4.59984,2471.889,2017-11-08T07:03:18Z
2017-11-08T05:04:55Z,42.805,6.029,13.2951,4.59979,2471.889,2017-11-08T07:06:21Z
2017-11-08T05:07:57Z,42.805,6.029,13.2949,4.59980,2471.889,2017-11-08T07:09:24Z
2017-11-08T05:11:00Z,42.805,6.029,13.2951,4.59987,2471.874,2017-11-08T07:12:27Z
2017-11-08T05:14:03Z,42.805,6.029,13.2953,4.59989,2471.912,2017-11-08T07:15:30Z
2017-11-08T05:17:06Z,42.805,6.029,13.2956,4.60001,2471.889,2017-11-08T07:18:33Z
2017-11-08T05:20:09Z,42.805,6.029,13.2950,4.59990,2471.912,2017-11-08T07:21:36Z
2017-11-08T05:23:12Z,42.805,6.029,13.2957,4.59989,2471.897,2017-11-08T07:24:39Z
2017-11-08T05:26:15Z,42.805,6.029,13.2963,4.59984,2471.912,2017-11-08T07:27:41Z
2017-11-08T05:29:18Z,42.805,6.029,13.2957,4.59993,2471.897,2017-11-08T07:30:44Z
2017-11-08T05:32:21Z,42.805,6.029,13.2957,4.60000,2471.934,2017-11-08T07:33:47Z
2017-11-08T05:35:23Z,42.805,6.029,13.2958,4.59998,2471.934,2017-11-08T07:36:50Z
2017-11-08T05:38:26Z,42.805,6.029,13.2951,4.59988,2471.912,2017-11-08T07:39:53Z
2017-11-08T05:41:29Z,42.805,6.029,13.2955,4.59983,2471.897,2017-11-08T07:42:56Z
2017-11-08T05:44:32Z,42.805,6.029,13.2965,4.59997,2471.934,2017-11-08T07:45:59Z
2017-11-08T05:47:35Z,42.805,6.029,13.2956,4.59990,2471.957,2017-11-08T07:49:02Z
2017-11-08T05:50:38Z,42.805,6.029,13.2958,4.59993,2471.957,2017-11-08T07:52:05Z
2017-11-08T05:53:41Z,42.805,6.029,13.2953,4.59981,2471.919,2017-11-08T07:55:07Z
2017-11-08T05:56:44Z,42.805,6.029,13.2955,4.59972,2471.934,2017-11-08T07:58:10Z
2017-11-08T05:59:47Z,42.805,6.029,13.2951,4.59984,2471.957,2017-11-08T08:01:13Z
2017-11-08T06:02:49Z,42.805,6.029,13.2953,4.59982,2471.934,2017-11-08T08:04:16Z
2017-11-08T06:05:52Z,42.805,6.029,13.2953,4.59992,2471.957,2017-11-08T08:07:19Z
2017-11-08T06:08:55Z,42.805,6.029,13.2955,4.60004,2471.957,2017-11-08T08:10:22Z
2017-11-08T06:11:58Z,42.805,6.029,13.2969,4.60006,2471.957,2017-11-08T08:13:25Z
2017-11-08T06:15:01Z,42.805,6.029,13.2968,4.60011,2471.964,2017-11-08T08:16:28Z
2017-11-08T06:18:04Z,42.805,6.029,13.2963,4.60026,2471.964,2017-11-08T08:19:31Z
2017-11-08T06:21:07Z,42.805,6.029,13.2960,4.60013,2471.934,2017-11-08T08:22:33Z
2017-11-08T06:24:10Z,42.805,6.029,13.2968,4.60000,2471.957,2017-11-08T08:25:36Z
2017-11-08T06:27:12Z,42.805,6.029,13.2960,4.60016,2471.964,2017-11-08T08:28:39Z
2017-11-08T06:30:15Z,42.805,6.029,13.2963,4.60010,2471.979,2017-11-08T08:31:42Z
2017-11-08T06:33:18Z,42.805,6.029,13.2957,4.60020,2471.979,2017-11-08T08:34:45Z
2017-11-08T06:36:21Z,42.805,6.029,13.2964,4.60009,2471.979,2017-11-08T08:37:48Z
2017-11-08T06:39:24Z,42.805,6.029,13.2964,4.60011,2472.024,2017-11-08T08:40:51Z
2017-11-08T06:42:27Z,42.805,6.029,13.2960,4.60021,2472.002,2017-11-08T08:43:54Z
2017-11-08T06:45:30Z,42.805,6.029,13.2961,4.60015,2471.979,2017-11-08T08:46:57Z
2017-11-08T06:48:33Z,42.805,6.029,13.2953,4.60009,2471.964,2017-11-08T08:49:59Z
2017-11-08T06:51:36Z,42.805,6.029,13.2956,4.60001,2471.987,2017-11-08T08:53:02Z
2017-11-08T06:54:38Z,42.805,6.029,13.2968,4.60016,2472.002,2017-11-08T08:56:05Z
2017-11-08T06:57:41Z,42.805,6.029,13.2970,4.60015,2472.002,2017-11-08T08:59:08Z
2017-11-08T07:00:44Z,42.805,6.029,13.2954,4.60021,2471.987,2017-11-08T09:02:11Z
2017-11-08T07:03:47Z,42.805,6.029,13.2958,4.60011,2472.024,2017-11-08T09:05:14Z
2017-11-08T07:06:50Z,42.805,6.029,13.2954,4.59998,2472.024,2017-11-08T09:08:17Z
2017-11-08T07:09:53Z,42.805,6.029,13.2969,4.60007,2472.002,2017-11-08T09:11:20Z
2017-11-08T07:12:56Z,42.805,6.029,13.2960,4.60009,2472.024,2017-11-08T09:14:23Z
2017-11-08T07:15:59Z,42.805,6.029,13.2958,4.59999,2472.01,2017-11-08T09:17:25Z
2017-11-08T07:19:02Z,42.805,6.029,13.2967,4.60011,2472.032,2017-11-08T09:20:28Z
2017-11-08T07:22:04Z,42.805,6.029,13.2951,4.60003,2472.01,2017-11-08T09:23:31Z
2017-11-08T07:25:07Z,42.805,6.029,13.2950,4.60004,2472.024,2017-11-08T09:26:34Z
2017-11-08T07:28:10Z,42.805,6.029,13.2949,4.59990,2472.092,2017-11-08T09:29:37Z
2017-11-08T07:31:13Z,42.805,6.029,13.2952,4.60003,2472.047,2017-11-08T09:32:40Z
2017-11-08T07:34:16Z,42.805,6.029,13.2951,4.60002,2472.069,2017-11-08T09:35:43Z
2017-11-08T07:37:19Z,42.805,6.029,13.2961,4.59994,2472.069,2017-11-08T09:38:46Z
2017-11-08T07:40:22Z,42.805,6.029,13.2959,4.59999,2472.069,2017-11-08T09:41:49Z
2017-11-08T07:43:25Z,42.805,6.029,13.2951,4.59998,2472.069,2017-11-08T09:44:51Z
2017-11-08T07:46:28Z,42.805,6.029,13.2958,4.59989,2472.069,2017-11-08T09:47:54Z
2017-11-08T07:49:30Z,42.805,6.029,13.2954,4.59985,2472.069,2017-11-08T09:50:57Z
2017-11-08T07:52:33Z,42.805,6.029,13.2951,4.59978,2472.055,2017-11-08T09:54:00Z
2017-11-08T07:55:36Z,42.805,6.029,13.2951,4.59989,2472.092,2017-11-08T09:57:03Z
2017-11-08T07:58:39Z,42.805,6.029,13.2949,4.59985,2472.092,2017-11-08T10:00:06Z
2017-11-08T08:01:42Z,42.805,6.029,13.2956,4.59994,2472.092,2017-11-08T10:03:09Z
2017-11-08T08:04:45Z,42.805,6.029,13.2966,4.60001,2472.092,2017-11-08T10:06:12Z
2017-11-08T08:07:48Z,42.805,6.029,13.2957,4.59996,2472.115,2017-11-08T10:09:15Z
2017-11-08T08:10:51Z,42.805,6.029,13.2965,4.60011,2472.092,2017-11-08T10:12:17Z
2017-11-08T08:13:54Z,42.805,6.029,13.2968,4.60002,2472.077,2017-11-08T10:15:20Z
2017-11-08T08:16:56Z,42.805,6.029,13.2953,4.60019,2472.123,2017-11-08T10:18:23Z
2017-11-08T08:19:59Z,42.805,6.029,13.2968,4.60012,2472.115,2017-11-08T10:21:26Z
2017-11-08T08:23:02Z,42.805,6.029,13.2971,4.60010,2472.115,2017-11-08T10:24:29Z
2017-11-08T08:26:05Z,42.805,6.029,13.2971,4.60003,2472.092,2017-11-08T10:27:32Z
2017-11-08T08:29:08Z,42.805,6.029,13.2967,4.60009,2472.1,2017-11-08T10:30:35Z
2017-11-08T08:32:11Z,42.805,6.029,13.2965,4.60012,2472.115,2017-11-08T10:33:38Z
2017-11-08T08:35:14Z,42.805,6.029,13.2964,4.59999,2472.077,2017-11-08T10:36:41Z
2017-11-08T08:38:17Z,42.805,6.029,13.2968,4.60003,2472.115,2017-11-08T10:39:43Z
2017-11-08T08:41:20Z,42.805,6.029,13.2978,4.60010,2472.1,2017-11-08T10:42:46Z
2017-11-08T08:44:23Z,42.805,6.029,13.2958,4.60012,2472.123,2017-11-08T10:45:49Z
2017-11-08T08:47:25Z,42.805,6.029,13.2957,4.60010,2472.1,2017-11-08T10:48:52Z
2017-11-08T08:50:28Z,42.805,6.029,13.2965,4.60013,2472.1,2017-11-08T10:51:55Z
2017-11-08T08:53:31Z,42.805,6.029,13.2961,4.60003,2472.115,2017-11-08T10:54:58Z
2017-11-08T08:56:34Z,42.805,6.029,13.2959,4.60004,2472.123,2017-11-08T10:58:01Z
2017-11-08T08:59:37Z,42.805,6.029,13.2957,4.60001,2472.123,2017-11-08T11:01:04Z
2017-11-08T09:02:40Z,42.805,6.029,13.2978,4.60011,2472.137,2017-11-08T11:04:07Z
2017-11-08T09:05:43Z,42.805,6.029,13.2970,4.60013,2472.123,2017-11-08T11:07:09Z
2017-11-08T09:08:46Z,42.805,6.029,13.2969,4.60004,2472.175,2017-11-08T11:10:12Z
2017-11-08T09:11:49Z,42.805,6.029,13.2975,4.60006,2472.16,2017-11-08T11:13:15Z
2017-11-08T09:14:51Z,42.805,6.029,13.2971,4.60021,2472.137,2017-11-08T11:16:18Z
2017-11-08T09:17:54Z,42.805,6.029,13.2978,4.59995,2472.115,2017-11-08T11:19:21Z
2017-11-08T09:20:57Z,42.805,6.029,13.2978,4.60006,2472.123,2017-11-08T11:22:24Z
2017-11-08T09:24:00Z,42.805,6.029,13.2979,4.60021,2472.137,2017-11-08T11:25:27Z
2017-11-08T09:27:03Z,42.805,6.029,13.2961,4.60002,2472.16,2017-11-08T11:28:30Z
2017-11-08T09:30:06Z,42.805,6.029,13.2975,4.59999,2472.16,2017-11-08T11:31:33Z
2017-11-08T09:33:09Z,42.805,6.029,13.2965,4.60009,2472.123,2017-11-08T11:34:35Z
2017-11-08T09:36:12Z,42.805,6.029,13.2968,4.60013,2472.16,2017-11-08T11:37:38Z
2017-11-08T09:39:15Z,42.805,6.029,13.2974,4.60035,2472.137,2017-11-08T11:40:41Z
2017-11-08T09:42:17Z,42.805,6.029,13.2963,4.60017,2472.16,2017-11-08T11:43:44Z
2017-11-08T09:45:20Z,42.805,6.029,13.2968,4.60026,2472.145,2017-11-08T11:46:47Z
2017-11-08T09:48:23Z,42.805,6.029,13.2982,4.59990,2472.168,2017-11-08T11:49:50Z
2017-11-08T09:51:26Z,42.805,6.029,13.2974,4.60018,2472.137,2017-11-08T11:52:53Z
2017-11-08T09:54:29Z,42.805,6.029,13.2957,4.59989,2472.16,2017-11-08T11:55:56Z
2017-11-08T09:57:32Z,42.805,6.029,13.2960,4.59985,2472.137,2017-11-08T11:58:59Z
2017-11-08T10:00:35Z,42.805,6.029,13.2966,4.60032,2472.137,2017-11-08T12:02:02Z
2017-11-08T10:03:38Z,42.805,6.029,13.2975,4.60012,2472.16,2017-11-08T12:05:04Z
2017-11-08T10:06:41Z,42.805,6.029,13.2977,4.59981,2472.182,2017-11-08T12:08:07Z
2017-11-08T10:09:43Z,42.805,6.029,13.2959,4.60017,2472.123,2017-11-08T12:11:10Z
2017-11-08T10:12:46Z,42.805,6.029,13.2964,4.60014,2472.1,2017-11-08T12:14:13Z
2017-11-08T10:15:49Z,42.805,6.029,13.2964,4.59983,2472.16,2017-11-08T12:17:16Z
2017-11-08T10:18:52Z,42.805,6.029,13.2975,4.59989,2472.16,2017-11-08T12:20:19Z
2017-11-08T10:21:55Z,42.805,6.029,13.2978,4.59978,2472.16,2017-11-08T12:23:22Z
2017-11-08T10:24:58Z,42.805,6.029,13.2972,4.59986,2472.115,2017-11-08T12:26:25Z
2017-11-08T10:28:01Z,42.805,6.029,13.2949,4.59987,2472.182,2017-11-08T12:29:28Z
2017-11-08T10:31:04Z,42.805,6.029,13.2948,4.59980,2472.16,2017-11-08T12:32:30Z
2017-11-08T10:34:07Z,42.805,6.029,13.2958,4.59984,2472.123,2017-11-08T12:35:33Z
2017-11-08T10:37:10Z,42.805,6.029,13.2955,4.59992,2472.137,2017-11-08T12:38:36Z
2017-11-08T10:40:12Z,42.805,6.029,13.2957,4.59998,2472.16,2017-11-08T12:41:39Z
2017-11-08T10:43:15Z,42.805,6.029,13.2952,4.59988,2472.129,2017-11-08T12:44:42Z
2017-11-08T10:46:18Z,42.805,6.029,13.2968,4.59972,2472.16,2017-11-08T12:47:45Z
2017-11-08T10:49:21Z,42.805,6.029,13.2954,4.59987,2472.137,2017-11-08T12:50:48Z
2017-11-08T10:52:24Z,42.805,6.029,13.2954,4.59990,2472.16,2017-11-08T12:53:51Z
2017-11-08T10:55:27Z,42.805,6.029,13.2962,4.59984,2472.145,2017-11-08T12:56:54Z
2017-11-08T10:58:30Z,42.805,6.029,13.2961,4.59975,2472.16,2017-11-08T12:59:56Z
2017-11-08T11:01:33Z,42.805,6.029,13.2957,4.59983,2472.182,2017-11-08T13:02:59Z
2017-11-08T11:04:36Z,42.805,6.029,13.2955,4.59989,2472.123,2017-11-08T13:06:02Z
2017-11-08T11:07:38Z,42.805,6.029,13.2961,4.59981,2472.123,2017-11-08T13:09:05Z
2017-11-08T11:10:41Z,42.805,6.029,13.2954,4.59987,2472.115,2017-11-08T13:12:08Z
2017-11-08T11:13:44Z,42.805,6.029,13.2954,4.59998,2472.16,2017-11-08T13:15:11Z
2017-11-08T11:16:47Z,42.805,6.029,13.2976,4.59975,2472.123,2017-11-08T13:18:14Z
2017-11-08T11:19:50Z,42.805,6.029,13.2951,4.59981,2472.115,2017-11-08T13:21:17Z
2017-11-08T11:22:53Z,42.805,6.029,13.2966,4.59978,2472.137,2017-11-08T13:24:20Z
2017-11-08T11:25:56Z,42.805,6.029,13.2967,4.59981,2472.137,2017-11-08T13:27:23Z
2017-11-08T11:28:59Z,42.805,6.029,13.2954,4.59980,2472.115,2017-11-08T13:30:25Z
2017-11-08T11:32:02Z,42.805,6.029,13.2964,4.59992,2472.115,2017-11-08T13:33:28Z
2017-11-08T11:35:04Z,42.805,6.029,13.2960,4.59991,2472.115,2017-11-08T13:36:31Z
2017-11-08T11:38:07Z,42.805,6.029,13.2964,4.59982,2472.137,2017-11-08T13:39:34Z
2017-11-08T11:41:10Z,42.805,6.029,13.2964,4.59987,2472.137,2017-11-08T13:42:37Z
2017-11-08T11:44:13Z,42.805,6.029,13.2957,4.59994,2472.152,2017-11-08T13:45:40Z
2017-11-08T11:47:16Z,42.805,6.029,13.2957,4.59999,2472.115,2017-11-08T13:48:43Z
2017-11-08T11:50:19Z,42.805,6.029,13.2971,4.59989,2472.137,2017-11-08T13:51:46Z
2017-11-08T11:53:22Z,42.805,6.029,13.2967,4.59992,2472.137,2017-11-08T13:54:49Z
2017-11-08T11:56:25Z,42.805,6.029,13.2966,4.59982,2472.137,2017-11-08T13:57:51Z
2017-11-08T11:59:28Z,42.805,6.029,13.2978,4.59993,2472.123,2017-11-08T14:00:54Z
2017-11-08T12:02:30Z,42.805,6.029,13.2963,4.59978,2472.123,2017-11-08T14:03:57Z
2017-11-08T12:05:33Z,42.805,6.029,13.2968,4.59979,2472.137,2017-11-08T14:07:00Z
2017-11-08T12:08:36Z,42.805,6.029,13.2964,4.59973,2472.115,2017-11-08T14:10:03Z
2017-11-08T12:11:39Z,42.805,6.029,13.2964,4.59991,2472.137,2017-11-08T14:13:06Z
2017-11-08T12:14:42Z,42.805,6.029,13.2980,4.59995,2472.137,2017-11-08T14:16:09Z
2017-11-08T12:17:45Z,42.805,6.029,13.2970,4.59991,2472.115,2017-11-08T14:19:12Z
2017-11-08T12:20:48Z,42.805,6.029,13.2958,4.60000,2472.123,2017-11-08T14:22:15Z
2017-11-08T12:23:51Z,42.805,6.029,13.2987,4.59962,2472.123,2017-11-08T14:25:17Z
2017-11-08T12:26:54Z,42.805,6.029,13.2967,4.60001,2472.115,2017-11-08T14:28:20Z
2017-11-08T12:29:56Z,42.805,6.029,13.2982,4.59989,2472.115,2017-11-08T14:31:23Z
2017-11-08T12:32:59Z,42.805,6.029,13.2988,4.60009,2472.115,2017-11-08T14:34:26Z
2017-11-08T12:36:02Z,42.805,6.029,13.2983,4.59986,2472.1,2017-11-08T14:37:29Z
2017-11-08T12:39:05Z,42.805,6.029,13.2988,4.59990,2472.077,2017-11-08T14:40:32Z
2017-11-08T12:42:08Z,42.805,6.029,13.2970,4.59987,2472.115,2017-11-08T14:43:35Z
2017-11-08T12:45:11Z,42.805,6.029,13.2986,4.59989,2472.092,2017-11-08T14:46:38Z
2017-11-08T12:48:14Z,42.805,6.029,13.2986,4.59995,2472.1,2017-11-08T14:49:41Z
2017-11-08T12:51:17Z,42.805,6.029,13.2971,4.59994,2472.115,2017-11-08T14:52:43Z
2017-11-08T12:54:20Z,42.805,6.029,13.2979,4.59992,2472.077,2017-11-08T14:55:46Z
2017-11-08T12:57:23Z,42.805,6.029,13.2978,4.59998,2472.092,2017-11-08T14:58:49Z
2017-11-08T13:00:25Z,42.805,6.029,13.2975,4.60030,2472.055,2017-11-08T15:01:52Z
2017-11-08T13:03:28Z,42.805,6.029,13.2963,4.60005,2472.069,2017-11-08T15:04:55Z
2017-11-08T13:06:31Z,42.805,6.029,13.2977,4.59983,2472.115,2017-11-08T15:07:58Z
2017-11-08T13:09:34Z,42.805,6.029,13.2954,4.59987,2472.055,2017-11-08T15:11:01Z
2017-11-08T13:12:37Z,42.805,6.029,13.2961,4.60000,2472.1,2017-11-08T15:14:04Z
2017-11-08T13:15:40Z,42.805,6.029,13.2978,4.60012,2472.069,2017-11-08T15:17:07Z
2017-11-08T13:18:43Z,42.805,6.029,13.2973,4.60006,2472.092,2017-11-08T15:20:09Z
2017-11-08T13:21:46Z,42.805,6.029,13.2962,4.59992,2472.092,2017-11-08T15:23:12Z
2017-11-08T13:24:49Z,42.805,6.029,13.2960,4.60004,2472.092,2017-11-08T15:26:15Z
2017-11-08T13:27:51Z,42.805,6.029,13.2958,4.59995,2472.092,2017-11-08T15:29:18Z
2017-11-08T13:30:54Z,42.805,6.029,13.2956,4.59984,2472.092,2017-11-08T15:32:21Z
2017-11-08T13:33:57Z,42.805,6.029,13.2986,4.60012,2472.077,2017-11-08T15:35:24Z
2017-11-08T13:37:00Z,42.805,6.029,13.2974,4.59983,2472.069,2017-11-08T15:38:27Z
2017-11-08T13:40:03Z,42.805,6.029,13.2993,4.59976,2472.047,2017-11-08T15:41:30Z
2017-11-08T13:43:06Z,42.805,6.029,13.2979,4.59992,2472.069,2017-11-08T15:44:33Z
2017-11-08T13:46:09Z,42.805,6.029,13.2973,4.60006,2472.084,2017-11-08T15:47:36Z
2017-11-08T13:49:12Z,42.805,6.029,13.2978,4.59982,2472.092,2017-11-08T15:50:38Z
2017-11-08T13:52:15Z,42.805,6.029,13.2970,4.59989,2472.077,2017-11-08T15:53:41Z
2017-11-08T13:55:17Z,42.805,6.029,13.2974,4.60041,2472.092,2017-11-08T15:56:44Z
2017-11-08T13:58:20Z,42.805,6.029,13.2964,4.59995,2472.069,2017-11-08T15:59:47Z
2017-11-08T14:01:23Z,42.805,6.029,13.2987,4.59980,2472.092,2017-11-08T16:02:50Z
2017-11-08T14:04:26Z,42.805,6.029,13.2958,4.59992,2472.069,2017-11-08T16:05:53Z
2017-11-08T14:07:29Z,42.805,6.029,13.2977,4.59997,2472.069,2017-11-08T16:08:56Z
2017-11-08T14:10:32Z,42.805,6.029,13.2973,4.59990,2472.092,2017-11-08T16:11:59Z
2017-11-08T14:13:35Z,42.805,6.029,13.3000,4.59998,2472.047,2017-11-08T16:15:02Z
2017-11-08T14:16:38Z,42.805,6.029,13.2989,4.60013,2472.047,2017-11-08T16:18:04Z
2017-11-08T14:19:41Z,42.805,6.029,13.2991,4.59995,2472.055,2017-11-08T16:21:07Z
2017-11-08T14:22:43Z,42.805,6.029,13.2989,4.59991,2472.055,2017-11-08T16:24:10Z
2017-11-08T14:25:46Z,42.805,6.029,13.2985,4.60014,2472.069,2017-11-08T16:27:13Z
2017-11-08T14:28:49Z,42.805,6.029,13.2997,4.59999,2472.062,2017-11-08T16:30:16Z
2017-11-08T14:31:52Z,42.805,6.029,13.3024,4.60009,2472.047,2017-11-08T16:33:19Z
2017-11-08T14:34:55Z,42.805,6.029,13.2964,4.60034,2472.024,2017-11-08T16:36:22Z
2017-11-08T14:37:58Z,42.805,6.029,13.2981,4.60024,2472.047,2017-11-08T16:39:25Z
2017-11-08T14:41:01Z,42.805,6.029,13.2991,4.60057,2472.069,2017-11-08T16:42:28Z
2017-11-08T14:44:04Z,42.805,6.029,13.2998,4.60065,2472.047,2017-11-08T16:45:30Z
2017-11-08T14:47:07Z,42.805,6.029,13.2985,4.60056,2472.032,2017-11-08T16:48:33Z
2017-11-08T14:50:10Z,42.805,6.029,13.2998,4.60010,2472.092,2017-11-08T16:51:36Z
2017-11-08T14:53:12Z,42.805,6.029,13.3002,4.60091,2472.069,2017-11-08T16:54:39Z
2017-11-08T14:56:15Z,42.805,6.029,13.3013,4.60039,2472.032,2017-11-08T16:57:42Z